Location: Unspecified
(42.7170°S, 0.0000°E)
Time: 14:29:47
(UTC+00:00)

N. Korean satellite - Pass Details

Date: 30 May 2019
Orbit: 455 x 510 km, 97.2° (Epoch: 16 June)

Event Time Altitude Azimuth Distance (km) Brightness Sun altitude
Rises 05:56:58 0° 346° (NNW) 2,483 10.2 -14.6°
Reaches altitude 10° 05:59:15 10° 331° (NNW) 1,625 9.1 -14.2°
Maximum altitude 06:02:09 24° 275° (W) 1,019 7.6 -13.7°
Enters shadow 06:02:32 24° 264° (W) 1,036 7.6 -13.7°
